Waarnemingen

Advertentie
Mijn weer
Drumalbin, Groot Brittannië (3155): temperatuur & dauwpunt: 12.02.2019 01:00:00 - 18.02.2019 01:00:00 (GMT)Drumalbin, Groot Brittannië (3155): temperatuur -20cm & temperatuur -100cm: 12.02.2019 01:00:00 - 18.02.2019 01:00:00 (GMT)Drumalbin, Groot Brittannië (3155): windsnelheid & windstoten: 12.02.2019 01:00:00 - 18.02.2019 01:00:00 (GMT)Drumalbin, Groot Brittannië (3155): windrichting: 12.02.2019 01:00:00 - 18.02.2019 01:00:00 (GMT)Drumalbin, Groot Brittannië (3155): luchtdruk: 12.02.2019 01:00:00 - 18.02.2019 01:00:00 (GMT)Drumalbin, Groot Brittannië (3155): zicht: 12.02.2019 01:00:00 - 18.02.2019 01:00:00 (GMT)Drumalbin, Groot Brittannië (3155): neerslag: 12.02.2019 01:00:00 - 18.02.2019 01:00:00 (GMT)
Datum & Tijd tt [°C] td [°C] tt -20cm [°C] tt -100cm [°C] ff [km/u] ff [kn] fx [km/u] fx [kn] dd ppp [hPa] vv [km] rr [mm]
18.02.2019 01:00:00 6,9 4,6 - - 35 19 55 30 ZW 1003,5 15 -
18.02.2019 00:00:00 6,8 5,1 - - 39 21 59 32 ZZW 1003,4 15 0,0
17.02.2019 23:00:00 6,8 5,3 - - 44 24 68 37 ZZW 1003,1 15 0,0
17.02.2019 22:00:00 6,9 5,8 - - 44 24 68 37 ZZW 1003,2 28 0,4
17.02.2019 21:00:00 6,9 5,9 - - 48 26 67 36 ZZW 1003,2 3,3 0,8
17.02.2019 20:00:00 7,0 4,9 - - 44 24 63 34 ZZW 1003,7 13 0,0
17.02.2019 19:00:00 6,9 4,5 - - 46 25 63 34 Z 1004,0 19 0,0
17.02.2019 18:00:00 7,1 4,5 - - 34 18 57 31 ZZW 1004,0 22 0,0
17.02.2019 17:00:00 7,6 4,9 - - 37 20 57 31 ZZW 1003,4 23 0,0
17.02.2019 16:00:00 8,6 5,0 - - 35 19 57 31 ZZW 1003,2 30 0,0
17.02.2019 15:00:00 9,3 5,5 - - 37 20 63 34 ZW 1003,2 40 0,0
17.02.2019 14:00:00 9,3 6,1 - - 42 23 65 35 ZZW 1002,9 35 0,0
17.02.2019 13:00:00 7,8 6,8 - - 44 24 65 35 ZZW 1003,3 20 0,0
17.02.2019 12:00:00 7,8 6,7 - - 44 24 65 35 ZZW 1003,4 6 -
17.02.2019 11:00:00 8,4 5,8 - - 48 26 70 38 Z 1003,3 13 -
17.02.2019 10:00:00 9,3 4,9 - - 50 27 76 41 Z 1003,6 24 0,0
17.02.2019 09:00:00 9,0 4,4 5,4 5,0 52 28 74 40 Z 1003,6 28 0,0
17.02.2019 08:00:00 8,1 4,3 - - 41 22 55 30 Z 1004,3 30 0,0
17.02.2019 07:00:00 8,7 4,2 - - 44 24 76 41 Z 1004,6 35 0,0
17.02.2019 06:00:00 9,0 4,6 - - 57 31 78 42 Z 1004,9 35 0,0
17.02.2019 05:00:00 8,9 5,3 - - 44 24 68 37 Z 1005,6 30 0,0
17.02.2019 04:00:00 8,6 6,1 - - 48 26 78 42 ZZW 1006,4 22 0,0
17.02.2019 03:00:00 8,8 7,0 - - 46 25 76 41 ZZW 1007,3 18 0,0
17.02.2019 02:00:00 8,8 7,2 - - 55 30 83 45 ZZW 1007,9 18 0,0
17.02.2019 01:00:00 9,0 7,5 - - 57 31 85 46 ZZW 1007,9 19 0,0
17.02.2019 00:00:00 9,1 8,1 - - 42 23 63 34 ZZW 1008,8 21 0,0
16.02.2019 23:00:00 9,1 8,4 - - 35 19 54 29 ZZW 1009,8 13 0,2
16.02.2019 22:00:00 8,3 7,6 - - 39 21 59 32 ZZW 1010,2 5 0,0
16.02.2019 21:00:00 8,1 6,8 - - 18 10 52 28 ZZW 1010,8 45 0,0
16.02.2019 20:00:00 7,7 5,6 - - 26 14 61 33 ZW 1011,5 29 0,0
16.02.2019 19:00:00 7,3 5,2 - - 34 18 52 28 ZZW 1011,9 27 0,0
16.02.2019 18:00:00 7,4 5,5 - - 31 17 - - ZZW 1012,6 25 0,0
16.02.2019 17:00:00 7,5 5,4 - - 31 17 50 27 ZZW 1012,7 30 0,0
16.02.2019 16:00:00 7,9 5,3 - - 31 17 55 30 ZW 1012,8 35 0,0
16.02.2019 15:00:00 8,0 5,3 - - 42 23 59 32 ZW 1012,8 40 0,0
16.02.2019 14:00:00 8,1 4,8 - - 37 20 57 31 ZW 1013,5 45 0,0
16.02.2019 13:00:00 8,5 4,3 - - 39 21 54 29 ZW 1014,1 50 0,0
16.02.2019 12:00:00 8,2 4,9 - - 35 19 52 28 ZW 1014,5 55 0,0
16.02.2019 11:00:00 7,5 5,6 - - 31 17 - - ZW 1014,4 50 0,0
16.02.2019 10:00:00 7,1 5,4 - - 28 15 - - ZW 1014,6 55 0,0
16.02.2019 09:00:00 7,2 5,5 5,0 5,0 18 10 - - ZZW 1014,2 55 0,0
16.02.2019 08:00:00 7,6 5,0 - - 24 13 - - ZW 1013,4 60 0,0
16.02.2019 07:00:00 7,6 5,2 - - 22 12 - - ZW 1012,6 24 0,0
16.02.2019 06:00:00 8,2 5,2 - - 22 12 - - ZW 1012,4 65 0,0
16.02.2019 05:00:00 8,2 5,2 - - 29 16 - - ZW 1011,8 45 0,0
16.02.2019 04:00:00 8,1 4,8 - - 28 15 50 27 ZW 1011,9 55 0,0
16.02.2019 03:00:00 8,6 4,7 - - 41 22 65 35 WZW 1011,6 45 0,0
16.02.2019 02:00:00 8,4 6,1 - - 34 18 48 26 ZW 1011,8 27 0,0
16.02.2019 01:00:00 8,7 6,8 - - 29 16 - - ZW 1011,8 21 0,0
16.02.2019 00:00:00 8,5 7,6 - - 24 13 57 31 ZW 1012,0 18 0,0
15.02.2019 23:00:00 8,0 7,2 - - 42 23 63 34 ZZW 1011,3 4,7 0,2
15.02.2019 22:00:00 8,3 7,2 - - 42 23 68 37 ZZW 1012,0 2,8 0,0
15.02.2019 21:00:00 8,6 6,1 - - 54 29 74 40 Z 1012,4 13 0,0
15.02.2019 20:00:00 8,5 4,3 - - 28 15 48 26 ZZW 1014,0 18 0,0
15.02.2019 19:00:00 7,7 3,2 - - 42 23 72 39 ZZW 1014,7 20 0,0
15.02.2019 18:00:00 7,9 3,1 - - 57 31 78 42 Z 1014,7 22 0,0
15.02.2019 17:00:00 8,2 3,6 - - 59 32 76 41 ZZW 1014,5 22 0,0
15.02.2019 16:00:00 8,7 4,0 - - 18 10 - - ZZW 1015,7 20 0,0
15.02.2019 15:00:00 8,7 4,5 - - 28 15 57 31 ZZW 1016,7 18 0,0
15.02.2019 14:00:00 8,9 4,5 - - 41 22 57 31 ZZW 1017,0 18 0,0
15.02.2019 13:00:00 8,3 3,6 - - 41 22 57 31 ZW 1018,5 20 0,0
15.02.2019 12:00:00 7,6 2,9 - - 34 18 61 33 ZW 1019,6 19 0,0
15.02.2019 11:00:00 6,5 2,6 - - 44 24 65 35 ZZW 1019,9 16 0,0
15.02.2019 10:00:00 6,1 1,6 - - 34 18 46 25 ZW 1020,7 24 0,0
15.02.2019 09:00:00 5,0 1,0 4,9 5,0 28 15 63 34 ZW 1020,4 23 0,0
15.02.2019 08:00:00 4,6 0,8 - - 50 27 65 35 ZZW 1020,3 20 0,0
15.02.2019 07:00:00 4,4 1,4 - - 41 22 54 29 ZZW 1020,7 14 0,0
15.02.2019 06:00:00 4,0 1,8 - - 21 11 - - ZZW 1021,4 11 0,0
15.02.2019 05:00:00 4,5 2,3 - - 5 3 - - WZW 1021,8 9 0,0
15.02.2019 04:00:00 4,2 1,8 - - 15 8 - - ZZW 1022,4 11 0,0
15.02.2019 03:00:00 3,1 1,0 - - 22 12 - - ZZW 1023,2 14 0,0
15.02.2019 02:00:00 4,2 1,9 - - 16 9 - - Z 1023,9 13 0,0
15.02.2019 01:00:00 5,2 1,5 - - 18 10 - - ZW 1024,3 17 0,0
15.02.2019 00:00:00 5,3 0,4 - - 18 10 - - ZW 1024,7 23 0,0
14.02.2019 23:00:00 6,3 -0,1 - - 24 13 - - ZW 1024,8 35 0,0
14.02.2019 22:00:00 6,0 0,6 - - 28 15 52 28 ZW 1024,8 30 0,0
14.02.2019 21:00:00 6,2 0,2 - - 34 18 50 27 ZW 1024,7 40 0,0
14.02.2019 20:00:00 6,0 1,5 - - 31 17 - - ZZW 1025,0 29 0,0
14.02.2019 19:00:00 5,4 2,1 - - 15 8 - - ZW 1025,9 26 0,0
14.02.2019 18:00:00 5,3 2,5 - - 28 15 - - ZZW 1025,5 25 0,0
14.02.2019 17:00:00 6,3 2,4 - - 9 5 - - ZZW 1025,5 35 0,0
14.02.2019 16:00:00 6,7 4,4 - - 24 13 - - ZW 1025,7 23 0,0
14.02.2019 15:00:00 7,1 5,1 - - 29 16 - - ZW 1026,0 20 0,0
14.02.2019 14:00:00 7,0 5,2 - - 24 13 50 27 ZW 1026,4 19 0,0
14.02.2019 13:00:00 7,2 5,4 - - 18 10 - - ZW 1026,9 20 0,0
14.02.2019 12:00:00 7,2 5,5 - - 29 16 52 28 ZW 1027,1 19 0,0
14.02.2019 11:00:00 7,5 5,6 - - 34 18 46 25 ZZW 1027,1 20 0,0
14.02.2019 10:00:00 7,4 5,6 - - 37 20 57 31 ZZW 1026,5 20 0,0
14.02.2019 09:00:00 7,2 5,6 4,7 4,9 31 17 50 27 ZZW 1026,4 18 0,0
14.02.2019 08:00:00 7,1 5,6 - - 35 19 52 28 Z 1026,2 17 0,0
14.02.2019 07:00:00 7,0 5,7 - - 26 14 - - ZZW 1025,7 16 0,0
14.02.2019 06:00:00 7,1 5,9 - - 31 17 54 29 ZZW 1025,4 15 0,0
14.02.2019 05:00:00 7,1 5,8 - - 39 21 59 32 ZZW 1024,5 15 0,0
14.02.2019 04:00:00 7,3 6,1 - - 41 22 57 31 ZW 1024,6 14 0,0
14.02.2019 03:00:00 7,3 6,1 - - 39 21 55 30 ZZW 1024,4 12 0,0
14.02.2019 02:00:00 7,3 6,0 - - 41 22 67 36 ZZW 1024,2 14 0,0
14.02.2019 01:00:00 7,2 5,7 - - 52 28 72 39 ZZW 1023,5 16 0,0
14.02.2019 00:00:00 7,4 5,8 - - 41 22 54 29 ZZW 1023,9 16 0,0
13.02.2019 23:00:00 7,5 5,5 - - 28 15 50 27 ZW 1024,1 18 0,0
13.02.2019 22:00:00 7,3 5,8 - - 31 17 57 31 ZZW 1023,7 15 0,0
13.02.2019 21:00:00 7,0 5,9 - - 46 25 63 34 ZZW 1023,1 10 0,0
13.02.2019 20:00:00 7,2 5,9 - - 34 18 52 28 ZZW 1022,8 15 0,0
13.02.2019 19:00:00 7,4 6,2 - - 31 17 48 26 ZW 1022,9 11 0,0
13.02.2019 18:00:00 7,7 6,1 - - 31 17 - - ZZW 1023,5 18 0,0
13.02.2019 17:00:00 8,0 6,1 - - 29 16 - - ZZW 1023,2 22 0,0
13.02.2019 16:00:00 8,2 6,2 - - - - - - - 1022,5 - 0,0
13.02.2019 15:00:00 - - - - - - - - - - - 0,0
13.02.2019 14:00:00 - - - - - - - - - - - 0,0
13.02.2019 13:00:00 - - - - - - - - - - - 0,0
13.02.2019 12:00:00 - - - - - - - - - - - 0,0
13.02.2019 11:00:00 8,2 6,8 - - 48 26 67 36 ZZW 1022,8 30 0,0
13.02.2019 10:00:00 7,9 6,8 - - 54 29 68 37 ZZW 1022,8 30 0,0
13.02.2019 09:00:00 7,8 6,8 4,2 4,7 44 24 63 34 ZW 1022,5 35 0,0
13.02.2019 08:00:00 7,9 6,8 - - 48 26 63 34 ZZW 1021,7 35 0,0
13.02.2019 07:00:00 8,0 6,9 - - 41 22 54 29 ZZW 1022,3 50 0,0
13.02.2019 06:00:00 8,1 6,8 - - 35 19 50 27 ZW 1022,9 45 0,0
13.02.2019 05:00:00 8,3 6,8 - - 39 21 52 28 ZZW 1023,0 40 0,0
13.02.2019 04:00:00 8,3 6,9 - - 37 20 52 28 ZZW 1023,5 40 0,0
13.02.2019 03:00:00 8,2 7,3 - - 31 17 48 26 ZZW 1023,9 50 0,0
13.02.2019 02:00:00 8,1 7,8 - - 34 18 46 25 ZZW 1024,2 8 0,0
13.02.2019 01:00:00 7,8 7,4 - - 22 12 - - ZZW 1024,9 23 0,0
13.02.2019 00:00:00 6,4 5,8 - - 24 13 54 29 ZZW 1025,5 20 0,0
12.02.2019 23:00:00 6,6 5,8 - - 13 7 - - ZZW 1025,7 23 0,0
12.02.2019 22:00:00 7,4 6,5 - - 21 11 - - ZZW 1025,5 30 0,0
12.02.2019 21:00:00 7,6 6,7 - - 21 11 - - ZZW 1025,4 35 0,0
12.02.2019 20:00:00 8,3 7,0 - - 22 12 - - ZW 1025,3 40 0,0
12.02.2019 19:00:00 8,5 7,3 - - 21 11 - - ZW 1025,0 35 0,0
12.02.2019 18:00:00 8,7 7,4 - - 22 12 - - WZW 1024,4 50 0,0
12.02.2019 17:00:00 9,5 7,6 - - 22 12 48 26 WZW 1024,4 50 0,0
12.02.2019 16:00:00 9,3 7,9 - - 34 18 46 25 WZW 1023,7 50 0,0
12.02.2019 15:00:00 9,4 8,1 - - 31 17 52 28 ZW 1022,8 30 0,0
12.02.2019 14:00:00 9,0 8,1 - - 31 17 52 28 ZW 1022,7 16 0,0
12.02.2019 13:00:00 8,8 7,8 - - 39 21 54 29 ZW 1021,9 50 0,4
12.02.2019 12:00:00 8,5 7,2 - - 31 17 48 26 ZW 1022,0 6 0,2
12.02.2019 11:00:00 7,9 6,8 - - 31 17 - - ZZW 1022,1 35 0,0
12.02.2019 10:00:00 7,7 6,6 - - 34 18 54 29 ZZW 1022,5 40 0,0
12.02.2019 09:00:00 7,0 6,4 3,7 4,7 26 14 50 27 ZZW 1022,7 40 0,0
12.02.2019 08:00:00 6,6 6,0 - - 35 19 48 26 ZZW 1022,7 9 0,4
12.02.2019 07:00:00 6,3 5,8 - - 37 20 50 27 ZZW 1022,9 3,4 0,2
12.02.2019 06:00:00 6,2 5,1 - - 35 19 52 28 ZZW 1022,9 29 0,0
12.02.2019 05:00:00 5,9 4,8 - - 34 18 48 26 ZZW 1023,8 30 0,0
12.02.2019 04:00:00 5,4 4,5 - - 29 16 - - ZZW 1024,4 25 0,0
12.02.2019 03:00:00 5,0 4,2 - - 22 12 - - Z 1025,3 27 0,0
12.02.2019 02:00:00 4,8 3,9 - - 31 17 - - Z 1025,5 28 0,0
12.02.2019 01:00:00 4,2 3,4 - - 28 15 - - ZZW 1026,0 27 0,0

tt = temperatuur
td = dauwpunt
tt -20cm = temperatuur -20cm
tt -100cm = temperatuur -100cm
ff = windsnelheid
fx = windstoten
dd = windrichting
ppp = luchtdruk
vv = zicht
rr = neerslag

Weerstations in de omgeving